TimeCST,TemperatureF,Dew PointF,Humidity,Sea Level PressureIn,VisibilityMPH,Wind Direction,Wind SpeedMPH,Gust SpeedMPH,PrecipitationIn,Events,Conditions,WindDirDegrees,DateUTC
12:53 AM,34.0,30.0,85,30.01,9.0,Calm,Calm,-,N/A,,Clear,0,2012-11-30 06:53:00
1:53 AM,30.9,28.9,92,30.02,8.0,Calm,Calm,-,N/A,,Clear,0,2012-11-30 07:53:00
2:53 AM,30.9,28.9,92,30.02,7.0,SE,4.6,-,N/A,,Clear,140,2012-11-30 08:53:00
3:37 AM,28.4,26.6,93,30.01,2.5,Calm,Calm,-,N/A,,Clear,0,2012-11-30 09:37:00
3:46 AM,28.4,26.6,93,30.01,5.0,Calm,Calm,-,N/A,,Clear,0,2012-11-30 09:46:00
3:53 AM,28.9,26.1,89,30.02,6.0,Calm,Calm,-,N/A,,Clear,0,2012-11-30 09:53:00
4:07 AM,33.8,28.4,81,30.01,2.0,SSE,3.5,-,N/A,,Clear,160,2012-11-30 10:07:00
4:16 AM,30.2,30.2,100,30.01,7.0,SSE,3.5,-,N/A,,Clear,150,2012-11-30 10:16:00
4:53 AM,32.0,30.0,92,30.04,10.0,Calm,Calm,-,N/A,,Clear,0,2012-11-30 10:53:00
5:53 AM,28.9,25.0,85,30.06,7.0,West,4.6,-,N/A,,Clear,270,2012-11-30 11:53:00
6:53 AM,35.1,32.0,89,30.08,9.0,SW,6.9,-,N/A,,Clear,230,2012-11-30 12:53:00
7:53 AM,33.1,30.9,92,30.09,5.0,WSW,5.8,-,N/A,,Clear,240,2012-11-30 13:53:00
8:53 AM,39.0,33.1,79,30.10,10.0,SW,3.5,-,N/A,,Clear,230,2012-11-30 14:53:00
9:53 AM,44.1,33.1,65,30.11,10.0,Calm,Calm,-,N/A,,Clear,0,2012-11-30 15:53:00
10:53 AM,46.0,32.0,58,30.11,10.0,North,4.6,-,N/A,,Clear,360,2012-11-30 16:53:00
11:53 AM,48.0,33.1,56,30.09,10.0,Calm,Calm,-,N/A,,Clear,0,2012-11-30 17:53:00
12:53 PM,52.0,33.1,49,30.08,10.0,West,3.5,-,N/A,,Clear,270,2012-11-30 18:53:00
1:53 PM,53.1,34.0,48,30.07,9.0,Calm,Calm,-,N/A,,Clear,0,2012-11-30 19:53:00
2:53 PM,54.0,34.0,47,30.05,10.0,SE,4.6,-,N/A,,Clear,140,2012-11-30 20:53:00
3:53 PM,53.1,35.1,50,30.04,10.0,Calm,Calm,-,N/A,,Clear,0,2012-11-30 21:53:00
4:53 PM,48.9,34.0,56,30.05,9.0,Calm,Calm,-,N/A,,Clear,0,2012-11-30 22:53:00
7:53 PM,36.0,28.9,76,30.04,8.0,Calm,Calm,-,N/A,,Clear,0,2012-12-01 01:53:00
8:53 PM,35.1,30.0,82,30.04,6.0,Calm,Calm,-,N/A,,Haze,0,2012-12-01 02:53:00
9:53 PM,32.0,26.1,79,30.03,8.0,Calm,Calm,-,N/A,,Clear,0,2012-12-01 03:53:00
10:53 PM,33.1,28.0,82,30.03,9.0,Calm,Calm,-,N/A,,Clear,0,2012-12-01 04:53:00